Location: Paderno d�Adda
(45.6667°N, 9.4333°E)
Time: 04:53:17
(UTC+00:00)

Cosmos 1125 Rocket - Pass Details

Date: 25 January 2021
Orbit: 757 x 781 km, 74.0° (Epoch: 05 March)

Event Time Altitude Azimuth Distance (km) Brightness Sun altitude
Exits shadow 04:33:08 - 350° (N) 2,476 6.0 -24.0°
Reaches altitude 10° 04:33:31 10° 352° (N) 2,338 5.9 -23.9°
Maximum altitude 04:38:29 39° 61° (ENE) 1,168 4.8 -23.1°
Drops below altitude 10° 04:43:25 10° 129° (SE) 2,331 6.7 -22.2°
Sets 04:45:57 0° 137° (SE) 3,255 7.5 -21.8°
